Cloud_Cover
100 98 5 100 96 93 100 100 86 0 0 5 5 5 18 100 100 100 100 100 100 67 8 14 6 0 0 0 0 0 0 0 0 0 0 0 0 0 0 0 0 0 0 0 0
99 39 32 100 75 72 100 100 0 0 0 62 5 48 5 100 100 100 100 100 100 100 47 47 59 6 0 0 0 0 0 0 0 0 0 0 0 0 0 0 0 0 0 0 2
26 1 72 100 100 100 100 90 0 0 0 48 100 99 6 7 62 100 100 100 100 100 100 82 83 41 4 0 0 0 0 0 0 0 0 0 0 0 0 0 0 0 0 0 0
20 55 100 100 100 100 100 3 0 0 0 5 74 100 64 5 5 85 100 100 100 100 100 100 95 74 8 3 0 0 0 0 5 5 5 5 4 4 4 0 0 0 0 0 0
92 52 100 100 100 100 68 3 0 0 0 0 43 100 99 6 8 44 100 100 100 100 100 100 100 100 97 12 5 2 0 0 0 0 4 3 0 0 0 0 0 0 0 0 0
100 99 100 100 100 100 5 3 0 0 0 0 9 100 100 28 5 6 66 94 100 100 100 100 100 100 97 34 8 5 5 5 5 4 4 0 0 0 0 0 0 0 0 0 0
100 100 100 100 100 100 3 5 0 0 0 0 0 90 100 74 5 29 82 75 80 100 100 100 100 100 90 71 43 14 6 5 5 0 0 0 0 0 0 0 0 0 0 0 0
100 100 100 100 98 83 5 0 0 0 0 0 0 5 75 100 5 5 45 36 51 49 89 100 100 100 100 52 5 5 5 5 5 5 2 0 1 0 0 0 0 0 0 0 0
100 100 100 87 26 37 5 3 3 0 0 0 0 3 84 100 52 11 12 42 52 59 69 60 51 80 97 99 20 5 5 4 3 0 4 4 5 0 2 3 4 4 3 1 1
100 100 100 100 87 5 5 5 3 0 0 0 0 0 4 13 32 5 5 5 8 7 8 6 22 59 38 30 30 12 10 5 5 24 5 3 5 4 5 5 5 2 0 1 1
100 85 100 100 99 5 5 5 0 0 0 0 0 0 0 0 0 4 0 0 2 2 0 0 1 3 5 3 5 5 5 5 5 5 4 0 0 0 0 0 0 0 0 0 0
100 100 92 87 5 2 0 0 0 0 0 0 0 0 0 0 0 0 0 0 0 0 0 0 0 0 0 0 0 0 0 0 0 0 1 0 0 0 0 0 0 0 0 0 0
100 100 100 8 4 0 0 0 0 0 0 0 0 0 0 0 0 0 0 0 0 0 0 0 0 0 0 0 0 0 0 0 2 0 0 5 0 0 0 0 0 0 0 0 0
8 100 100 88 2 0 0 0 0 0 1 0 0 0 0 0 0 0 0 0 0 0 0 0 0 0 0 0 0 0 0 1 5 3 4 3 0 0 0 0 0 0 0 0 0
0 0 53 96 22 0 0 0 0 0 0 0 0 0 0 0 0 0 0 0 0 0 0 0 0 0 0 0 0 0 0 2 5 49 18 3 5 0 0 0 0 0 0 0 0
0 0 0 5 25 2 0 0 0 0 0 0 0 0 0 0 0 0 0 0 0 0 0 0 0 0 0 0 0 0 0 4 22 44 4 2 5 0 0 0 0 0 0 0 0
0 0 0 0 0 0 0 0 0 0 0 0 0 0 0 0 0 0 0 0 0 0 2 0 0 0 0 0 0 0 0 0 1 4 0 5 5 0 0 0 0 0 0 0 0
0 0 0 0 0 0 0 0 0 0 0 0 0 0 0 0 0 0 0 0 0 0 5 3 0 0 0 0 1 0 0 2 0 0 1 6 7 0 0 0 0 0 0 0 0
0 0 0 0 0 0 0 0 0 0 0 0 0 0 0 0 0 0 0 0 0 0 0 3 0 0 0 0 0 2 3 2 22 6 30 1 0 0 0 0 0 0 0 0 0
0 0 0 0 0 0 0 1 0 0 0 0 0 0 0 0 0 0 0 0 0 0 0 0 0 0 0 0 1 0 0 0 4 0 0 0 0 0 0 0 0 0 0 0 0
0 0 0 0 0 0 0 0 0 0 0 0 0 0 0 0 0 0 0 0 0 0 0 0 0 0 0 3 3 20 4 3 1 1 0 0 0 0 0 0 0 0 0 0 0
0 0 0 0 0 0 0 0 0 1 0 0 0 0 0 0 0 0 0 0 0 0 0 0 4 4 0 0 0 0 0 0 0 1 5 2 1 0 0 0 0 0 0 0 0
0 0 0 0 0 0 0 0 0 0 0 0 2 0 0 0 0 0 0 0 0 0 0 0 0 0 0 0 0 0 0 0 0 2 5 1 0 0 0 0 0 5 2 1 0
1 0 0 1 0 2 0 0 0 0 0 0 5 0 0 0 0 0 0 0 2 2 2 0 0 0 0 0 0 0 0 0 1 5 5 0 0 0 0 0 0 0 0 5 5
5 34 5 5 8 5 0 4 2 4 0 0 0 0 0 0 0 0 2 0 1 0 4 5 6 24 13 5 1 0 3 5 5 5 5 4 0 0 0 3 5 15 2 0 1
96 56 8 17 7 11 15 5 5 13 5 3 0 0 0 0 0 0 0 5 17 5 18 11 5 5 58 36 8 5 35 5 5 5 1 5 5 5 5 5 5 9 100 100 100
55 78 83 16 26 35 6 10 93 34 8 5 8 6 5 0 0 0 0 2 0 3 10 20 96 100 5 100 56 5 5 20 100 88 100 98 98 30 5 5 4 5 37 100 100